Regional Weather Roundup
Issued by NWS

Home | Current Version | Previous Version | Graphics & Text | Print | Product List | Glossary On
Versions: 1 2 3 4 5 6 7 8 9 10 11 12 13 14 15 16 17 18 19 20 21 22 23 24 25 26 27 28 29 30 31 32 33 34 35 36 37 38 39 40 41 42 43 44 45 46 47 48 49 50
000
ASUS43 KMPX 041701
RWRMN
WEATHER ROUNDUP FOR MINNESOTA
NATIONAL WEATHER SERVICE TWIN CITIES/CHANHASSEN MN
1100 AM CST WED MAR 04 2015


NOTE: "FAIR" INDICATES FEW OR NO CLOUDS BELOW 12,000 FEET WITH NO
SIGNIFICANT WEATHER AND/OR OBSTRUCTIONS TO VISIBILITY. N/A MEANS
CURRENT SKY AND/OR WEATHER CONDITIONS ARE NOT AVAILABLE.

MNZ060>063-068>070-041800-
   Twin Cities Metro

CITY           SKY/WX    TMP DP  RH WIND       PRES   REMARKS
TWIN CITIES    MOSUNNY    8  -6  52 W12       30.24R WCI  -7
ST PAUL        SUNNY      9  -6  50 W16G24    30.25R WCI  -8
CRYSTAL        SUNNY      6  -7  54 NW17      30.23R WCI -13
BLAINE         MOSUNNY    9  -4  56 W15       30.21R WCI  -8
LAKEVILLE      SUNNY      5  -6  61 W13       30.23R WCI -12
EDEN PRAIRIE   SUNNY      8  -6  52 W13G18    30.23R WCI  -8
SOUTH ST PAUL  SUNNY      9  -7  48 W15G23    30.24R WCI  -8
LAKE ELMO      FAIR       9  -6  52 W9        30.23R WCI  -5
$$
MNZ001>005-007-008-013>017-022>024-027-028-041800-
   Northwest Minnesota

CITY           SKY/WX    TMP DP  RH WIND       PRES   REMARKS
BEMIDJI        SUNNY     -5 -15  61 W16G22    30.15R WCI -27
HALLOCK        CLOUDY    -4 -11  71 NW17G24   30.25R WCI -26
ROSEAU         SUNNY     -6 -15  65 W13       30.18R WCI -25
WARROAD        MOSUNNY   -6 -15  65 W12       30.16R HAZE    WCI -24
THIEF RVR FALL CLOUDY    -6 -17  59 NW17      30.21R WCI -28
CROOKSTON      SUNNY     -2  -9  71 NW15G23   30.28R WCI -22
FOSSTON        PTSUNNY   -4 -15  59 NW14G22   30.21R WCI -24
DETROIT LAKES  MOSUNNY   -2 -11  65 N16       30.22R WCI -23
MOORHEAD       CLOUDY     0  -8  71 NW14      30.29R HAZE    WCI -19
PARK RAPIDS    CLOUDY    -2 -12  62 NW18      30.15R WCI -24
MAHNOMEN       PTSUNNY   -5 -12  71 NW16      30.21R HAZE    WCI -27
$$
MNZ006-009>011-018-025>026-041800-
   North Central Minnesota

CITY           SKY/WX    TMP DP  RH WIND       PRES   REMARKS
BAUDETTE       MOSUNNY   -6 -15  65 NW13      30.12R WCI -25
FLAG ISLAND    MOSUNNY   -6 -15  65 NW17      30.12R WCI -28
INTL FALLS     CLOUDY    -6 -16  61 NW17      30.10R HAZE    WCI -28
WASKISH        SUNNY     -2 -13  60 W12G17    30.15R WCI -20
BIG FORK       SUNNY     -2 -18  46 NW6G16    30.10R WCI -14
LONGVILLE      MOSUNNY   -2 -15  55 NW12G17   30.15R WCI -20
GRAND RAPIDS   PTSUNNY   -2 -13  60 NW23G29   30.08R WCI -26
CRANE LAKE     MOSUNNY   -6 -18  54 NW7G17    30.10R WCI -20
ORR            PTSUNNY   -6 -18  54 NW13G18   30.04R WCI -25
COOK           CLOUDY    -6 -15  65 W13G20    30.07R HAZE    WCI -25
WALKER         CLOUDY    -4 -16  55 NW13G21   30.14R WCI -23
$$
MNZ012-019>021-037-041800-
   Northeast Minnesota

CITY           SKY/WX    TMP DP  RH WIND       PRES   REMARKS
DULUTH         CLOUDY     0 -13  54 W16G25    30.04S WCI -20
ELY            MOSUNNY   -4 -18  50 W13G26    30.02R WCI -23
HIBBING        CLOUDY    -2 -16  51 NW20      30.07R WCI -24
EVELETH        PTSUNNY    0 -13  55 NW21      30.06R WCI -23
DULUTH HARBOR  MOSUNNY    3  -9  55 W10       30.15S WCI -12
TWO HARBORS    CLOUDY     5  -9  51 NW10G22   30.04R WCI -10
SILVER BAY     SUNNY      3 -15  43 W10G20    30.02R WCI -12
GRAND MARAIS     N/A      3 -16  40 NW8G18    30.06R WCI -10
G MARAIS ARPRT FLURRIES  -6 -22  45 W13G23    29.89R WCI -25
$$
MNZ029>031-032-039>041-046>048-054>057-064-041800-
   West Central Minnesota

CITY           SKY/WX    TMP DP  RH WIND       PRES   REMARKS
FERGUS FALLS   SUNNY      1 -11  55 NW20      30.28R WCI -20
WHEATON        MOSUNNY    1  -9  60 NW16      30.30R WCI -18
MORRIS         MOSUNNY    5  -6  61 NW18      30.25R WCI -15
ALEXANDRIA     MOSUNNY    1 -10  60 NW18G25   30.20R WCI -20
ELBOW LAKE     CLOUDY     0  -9  65 NW20G25   30.24R WCI -21
WADENA         SUNNY     -2 -13  60 NW17      30.18R WCI -24
GLENWOOD       SUNNY      1  -8  66 W18G24    30.21R WCI -19
APPLETON       SUNNY      9  -8  47 NW20      30.28R WCI -11
BENSON         SUNNY      7  -8  51 N18       30.25R WCI -12
ORTONVILLE     SUNNY      5  -8  56 NW13G23   30.27R WCI -12
MADISON        MOSUNNY    9  -2  61 NW13G18   30.28R WCI  -7
WILLMAR        FAIR       9  -4  56 NW18      30.24R WCI -10
$$
MNZ033>034-036-042>043-049>051-058-059-041800-
   Central Minnesota

CITY           SKY/WX    TMP DP  RH WIND       PRES   REMARKS
ST CLOUD       SUNNY      4  -8  57 W20       30.20R WCI -17
SAUK CENTRE    FAIR       3  -8  59 NW18G24   30.21R WCI -18
PAYNESVILLE    SUNNY      2 -10  57 SW15G21   30.23R WCI -16
AITKIN         PTSUNNY    3 -11  51 W7G17     30.13R WCI  -9
PINE RIVER     PTSUNNY    0 -11  60 NW12      30.18R WCI -18
BRAINERD       CLOUDY     1 -11  57 NW15      30.16R WCI -18
STAPLES        CLOUDY     0 -11  60 NW20      30.17R WCI -22
LONG PRAIRIE   CLOUDY     1  -8  66 W14G20    30.19  WCI -17
LITTLE FALLS   MOSUNNY    3 -11  51 W14G22    30.20R WCI -15
LITCHFIELD     SUNNY      7  -4  61 NW15      30.22S WCI -11
BUFFALO        SUNNY      7  -7  53 W15G21    30.24R WCI -11
MAPLE LAKE     SUNNY      8  -4  58 W12G20    30.23R WCI  -7
$$
MNZ037-044-045-052-053-041800-
   East Central Minnesota

CITY           SKY/WX    TMP DP  RH WIND       PRES   REMARKS
PRINCETON      SUNNY      7  -9  47 W15G21    30.19S WCI -11
MORA           SNOW       7 -13  40 NW17G25   30.18R VSB 1/2 WCI -12
CAMBRIDGE      SUNNY      7  -8  51 W15G23    30.18R WCI -11
RUSH CITY      SUNNY      6 -12  42 NW14G22   30.19R WCI -11
MOOSE LAKE     PTSUNNY    3 -11  51 NW9G20    30.12R WCI -11
HINCKLEY       FAIR       5  -9  51 W13G20    30.16R WCI -12
CLOQUET        MOSUNNY    1 -13  51 W14G20    30.07S WCI -17
MCGREGOR       PTSUNNY    1  -9  60 W15G21    30.13R WCI -18
$$
MNZ071>073-080-081-089-090-097-098-041800-
   Southwest Minnesota

CITY           SKY/WX    TMP DP  RH WIND       PRES   REMARKS
MONTEVIDEO     MOSUNNY    9   1  72 N16G22    30.28R WCI  -9
GRANITE FALLS  PTSUNNY    9   2  72 W14       30.28R WCI  -7
CANBY          MOSUNNY    8  -1  66 NW12      30.28R WCI  -7
MARSHALL       PTSUNNY    9  -2  61 NW16      30.26R WCI  -9
REDWOOD FALLS  SUNNY      8  -2  63 W12       30.26R WCI  -7
OLIVIA         MOSUNNY    9   1  72 NW12      30.24S WCI  -6
PIPESTONE      SUNNY      7   0  72 N13G18    30.20R WCI  -9
WINDOM         MOSUNNY    9   0  66 NW9       30.22S WCI  -5
WORTHINGTON    PTSUNNY   10   1  67 NW17      30.22R WCI  -7
JACKSON        MOSUNNY   10   3  72 VRB7      30.22R WCI   0
TRACY          PTSUNNY   10   1  67 NW9       30.24R WCI  -3
SLAYTON        CLOUDY     8  -3  60 CALM      30.21R
$$
MNZ065>067-074>077-082>085-091>093-041800-
   South Central Minnesota

CITY           SKY/WX    TMP DP  RH WIND       PRES   REMARKS
MANKATO        PTSUNNY    9  -2  61 NW15      30.25R WCI  -8
NEW ULM        SUNNY      7  -2  66 W10       30.26R WCI  -8
ST JAMES       SUNNY     10  -2  56 W10       30.27S WCI  -3
FAIRMONT       SUNNY     10  -2  56 NW9       30.23S WCI  -2
GLENCOE        SUNNY      8  -1  66 W12       30.24S WCI  -7
FARIBAULT      SUNNY      9  -4  56 W10G18    30.24R WCI  -6
OWATONNA       SUNNY      9  -4  56 NW13      30.23R WCI  -7
WASECA         SUNNY      9  -2  61 W12       30.25S WCI  -6
ALBERT LEA     SUNNY      9  -2  61 NW8       30.23R WCI  -4
$$
MNZ078>079-086>088-094>096-041800-
   Southeast Minnesota

CITY           SKY/WX    TMP DP  RH WIND       PRES   REMARKS
ROCHESTER      SUNNY      6  -4  63 NW16      30.20R WCI -12
RED WING       SUNNY      9  -9  43 W14G21    30.23R WCI  -8
STANTON        MOSUNNY    9  -4  54 W14       30.23R WCI  -7
DODGE CENTER   MOSUNNY    7  -6  56 NW13      30.20R WCI  -9
WINONA         SUNNY     12  -4  48 NW10      30.26R WCI  -1
AUSTIN         SUNNY      7  -6  56 NW14      30.23R WCI -10
PRESTON        SUNNY      5  -5  62 NW13      30.22R WCI -11
$$
ABBREVIATIONS USED IN REMARKS
   TC - TEMPERATURES IN CELSIUS
  WCI - WIND CHILL INDEX
   HX - HEAT INDEX
  VSB - VISIBILITY
$$



USA.gov is the U.S. government's official web portal to all federal, state and local government web resources and services.